Погода в Лыкошине

Россия / Тверская область     58°06′19″N   33°42′44″E
темп.,
°C
ветер,
м/с
пор.,
м/с
влажн.,
%
обл.,
%
осадки,
мм/ч
давл.,
гПа
погр.,
м
11 апреля, вс
вс1100:00+3з3788100 3.1 1021690
03:00+1юз2591100 3.1 1023156
06:00+1юз2294100 0.0 102538
09:00+5юз13685 0.0 1026492
12:00+9юз12445 0.0 10271322
15:00+10ю234797 0.0 10281596
18:00+9ю23649 0.0 1029799
21:00+5юв249196 0.0 103068
12 апреля, пн
пн1200:00+6ююв3791100 0.0 1030248
03:00+6ююв2888100 0.0 1030202
06:00+6ю398774 0.0 1030229
09:00+10ю486616 0.0 1030351
12:00+14ю58475 0.0 10281114
15:00+16ююв57403 0.0 10261433
18:00+14юв474591 0.0 10251181
21:00+10юв41162100 0.0 1024386
13 апреля, вт
вт1300:00+9ююв41075100 0.1 1023519
03:00+8ю3993100 1.6 1022597
06:00+7ююв3697100 0.6 1021257
09:00+8ю2596100 1.0 1021279
12:00+8ю2696100 0.6 1020298
15:00+8ю2698100 1.3 1020279
18:00+10ю359142 0.1 1019300
21:00+7ю239744 0.1 101954
14 апреля, ср
ср1400:00+7зюз2296100 0.0 101834
03:00+7сз249671 0.0 101895
06:00+4ссз399640 0.0 1020291
09:00+6с457741 0.0 1021474
12:00+8ссз4463100 0.0 1022807
15:00+8с4454100 0.0 1022837
18:00+7с3555100 0.0 1022798
21:00+5ссв3863100 0.0 1023424
15 апреля, чт
чт1500:00+3с366896 0.0 1024376
03:00+2с367397 0.0 1024274
06:000с2675100 0.0 1025250
09:00+3с3569100 0.0 1025497
12:00+6с454897 0.0 10251076
15:00+8ссз46340 0.0 10241504
18:00+8с48425 0.0 10241702
21:00+4с411600 0.0 1025603